Regional Weather Roundup
Issued by NWS

Home | Current Version | Previous Version | Graphics & Text | Print | Product List | Glossary On
Versions: 1 2 3 4 5 6 7 8 9 10 11 12 13 14 15 16 17 18 19 20 21 22 23 24 25 26 27 28 29 30 31 32 33 34 35 36 37 38 39 40 41 42 43 44 45 46 47 48 49 50
821
ASUS45 KABQ 220010
RWRNM
NEW MEXICO REGIONAL WEATHER ROUNDUP
NATIONAL WEATHER SERVICE ALBUQUERQUE NM
500 PM MST SAT JAN 21 2017

NOTE: "FAIR" MEANS FEW OR NO CLOUDS BELOW 12,000 FEET AGL WITH NO
       SIGNIFICANT WEATHER OR OBSTRUCTIONS TO VISION.

      THIS PRODUCT IS RELEASED AS TWO VERSIONS.  ONE VERSION NEAR
      THE TOP OF THE HOUR CONTAINING PRELIMINARY DATA FROM ALBUQUERQUE
      AND OTHER STATIONS.  A FINAL VERSION WITH ADDITIONAL DATA IS
      ISSUED ABOUT 10 MINUTES AFTER THE HOUR.

NMZ501-503-504-510>518-220100-
NORTHWEST PLATEAU/NORTHCENTRAL MOUNTAINS

CITY           SKY/WX    TMP DP  RH WIND       PRES   REMARKS
FARMINGTON     FLURRIES  36  27  69 W24G31    29.60R WCI  24
6HR MIN TEMP:  34; 6HR MAX TEMP:  38; 6HR PCP:  0.01;

LOS ALAMOS     CLOUDY    31  26  83 SE6       29.53R WCI  25
SANTA FE       CLOUDY    35  23  61 W16       29.53R WCI  25
6HR MIN TEMP:  34; 6HR MAX TEMP:  40; 6HR PCP:  0.06;

TAOS           CLOUDY    30  18  59 SW17      29.50R WCI  18
ANGEL FIRE     LGT SNOW  25  20  79 W12G21    29.47R WCI  14

$$
NMZ402-403-502-505>509-220100-
WESTCENTRAL MOUNTAINS/SOUTHWEST MOUNTAINS

CITY           SKY/WX    TMP DP  RH WIND       PRES   REMARKS
GALLUP         FLURRIES  31  25  78 W14       29.69R WCI  21
6HR MIN TEMP:  30; 6HR MAX TEMP:  33; 6HR PCP: TRACE;

GRANTS         FAIR      32  21  63 NW16G26   29.66R WCI  22
SILVER CITY    CLOUDY    37  25  61 W39G49    29.79R WCI  22

$$
NMZ407-409-411-412-220100-
SOUTHERN DESERTS

CITY           SKY/WX    TMP DP  RH WIND       PRES   REMARKS
DEMING         CLOUDY    44  29  55 W33G41    29.79R
6HR MIN TEMP:  39; 6HR MAX TEMP:  48; 6HR PCP:  0.01;

LAS CRUCES     FAIR      42  28  55 W36G56    29.74R
HOLLOMAN AFB   CLOUDY    46  29  52 W21G30    29.70R
ALAMOGORDO     MOCLDY    46  27  46 W20G28    29.68R
T OR C         FAIR      43  20  39 W25G35    29.68R
6HR MIN TEMP:  41; 6HR MAX TEMP:  49; 6HR PCP: TRACE;


$$
NMZ519>523-220100-
CENTRAL VALLEYS/CENTRAL HIGHLANDS

CITY           SKY/WX    TMP DP  RH WIND       PRES   REMARKS
ALBUQUERQUE    FAIR      40  18  41 W22G31    29.59R WCI  30
6HR MIN TEMP:  40; 6HR MAX TEMP:  46;

DOUBLE EAGLE   PTCLDY    37  19  48 W20G29    29.57R WCI  27
MORIARTY ARPT  CLOUDY    37  16  42 W21G26    29.55R WCI  26
6HR MIN TEMP:  35; 6HR MAX TEMP:  43;

CLINES CORNERS FAIR      30  16  56 W38G48    29.48R WCI  13
6HR MIN TEMP:  30; 6HR MAX TEMP:  35; 6HR PCP: TRACE;

BELEN          FAIR      40  19  41 W20G32    29.61R WCI  31
6HR MIN TEMP:  40; 6HR MAX TEMP:  46;

SOCORRO        FAIR      41  21  44 NW23G41   29.64R
6HR MIN TEMP:  33; 6HR MAX TEMP:  46;


$$
NMZ524>526-539-540-220100-
SOUTHCENTRAL MOUNTAINS

CITY           SKY/WX    TMP DP  RH WIND       PRES   REMARKS
RUIDOSO        MOCLDY    30  16  55 W16G23    29.58R WCI  19

$$
NMZ527>531-220100-
NORTHEAST HIGHLANDS/NORTHEAST PLAINS

CITY           SKY/WX    TMP DP  RH WIND       PRES   REMARKS
LAS VEGAS      CLOUDY    35  17  47 NW17G32   29.40R WCI  25
6HR MIN TEMP:  34; 6HR MAX TEMP:  40;

RATON          CLOUDY    35  28  75 NE8       29.36R WCI  29
6HR MIN TEMP:  34; 6HR MAX TEMP:  40; 6HR PCP: TRACE;

CLAYTON        LGT RAIN  38  37  97 N15       29.34R WCI  29
6HR MIN TEMP:  38; 6HR MAX TEMP:  50; 6HR PCP:  0.03;


$$
NMZ532>537-220100-
EASTCENTRAL PLAINS

CITY           SKY/WX    TMP DP  RH WIND       PRES   REMARKS
TUCUMCARI      CLOUDY    50  25  37 W17G24    29.32R
6HR MIN TEMP:  45; 6HR MAX TEMP:  56; 6HR PCP: TRACE;

CANNON AFB     FAIR      49  21  33 W24G33    29.38R
6HR MIN TEMP:  46; 6HR MAX TEMP:  53; 6HR PCP: TRACE;

CLOVIS AIRPORT FAIR      48  19  32 W25G38    29.37R

$$
NMZ028-029-538-220100-
SOUTHEAST PLAINS

CITY           SKY/WX    TMP DP  RH WIND       PRES   REMARKS
ROSWELL        FAIR      49  25  39 W31G40    29.51S
6HR MIN TEMP:  45; 6HR MAX TEMP:  58; 6HR PCP: TRACE;

ARTESIA        FAIR      48  27  43 W22G31    29.55R
CARLSBAD       FAIR      51  26  37 W38G47    29.53R
6HR MIN TEMP:  51; 6HR MAX TEMP:  58; 6HR PCP: TRACE;

HOBBS          LGT RAIN  50  23  34 W24G39    29.51R


$$




USA.gov is the U.S. government's official web portal to all federal, state and local government web resources and services.